Location: Newark
(48.1281°N, 2.1556°W)
Time: 19:03:22
(UTC+00:00)

Envisat - Pass Details

Date: 25 November 2019
Orbit: 764 x 766 km, 98.1° (Epoch: 12 December)

Event Time Altitude Azimuth Distance (km) Brightness Sun altitude
Rises 05:36:23 0° 30° (NNE) 3,242 6.5 -18.4°
Reaches altitude 10° 05:39:50 10° 55° (NE) 2,309 6.1 -17.8°
Maximum altitude 05:42:32 14° 87° (E) 2,015 6.2 -17.4°
Drops below altitude 10° 05:45:15 10° 120° (ESE) 2,300 6.6 -16.9°
Sets 05:48:39 0° 144° (SE) 3,219 7.0 -16.4°
